Location: ?????
(44.4284°N, 135.2222°E)
Time: 14:50:07
(UTC+00:00)

Cosmos 1766 Rocket - Pass Details

Date: 19 May 2025
Orbit: 598 x 627 km, 82.5° (Epoch: 20 June)

Event Time Altitude Azimuth Distance (km) Brightness Sun altitude
Rises 13:50:28 0° 346° (NNW) 2,903 8.4 -24.0°
Reaches altitude 10° 13:52:45 10° 340° (NNW) 1,987 7.2 -24.1°
Maximum altitude 13:56:59 48° 267° (W) 808 4.1 -24.3°
Enters shadow 13:57:09 47° 259° (WSW) 812 4.1 -24.3°
